Location: Newark
(48.5178°N, 4.2361°E)
Time: 05:59:17
(UTC+00:00)

ISS - Pass Details

Date: 26 January 2021
Orbit: 417 x 422 km, 51.6° (Epoch: 05 March)

Event Time Altitude Azimuth Distance (km) Brightness Sun altitude
Rises 17:45:38 0° 264° (W) 2,369 2.0 -12.1°
Reaches altitude 10° 17:47:45 10° 268° (W) 1,506 0.5 -12.5°
Maximum altitude 17:51:05 56° 348° (NNW) 507 -3.4 -13.0°
Enters shadow 17:52:55 24° 60° (ENE) 929 -2.6 -13.3°
